STARLINK-1477, 45754

Orbit data source: Space-Track

STARLINK-1477, 45754 is a payload satellite owned by SpaceX/Seattle (US) in LEO that was launched on Sat, 13 Jun 2020 UTC via an FALCON 9 launch vehicle from the Air Force Eastern Test Range (AFETR). Payload-class satellites include a variety of spacecraft equipped with specific instruments for various scientific and technological missions. These include communications satellites like Starlink; space stations such as the ISS; scientific satellites like the Hubble; Earth observation satellites from companies like Planet Labs, Umbra, and HawkEye 360; GPS; miniature CubeSats for education and research; and military/defense satellites.

Loading next visibility...
Identifier
45754, 2020-038AA
Orbit
LEO
Country
Flag of USUS
Related business
Manufacturer
SpaceX/Seattle
Mission
Operational Commercial Communications
Bus & Motor
STARLINK, Unknown motor
Mass
260 kg wet, ~248 kg dry
Launch date (UTC)
2020-06-13 (5 years ago)
Launch vehicle
FALCON 9
Launch site
Air Force Eastern Test Range (AFETR)
Object type
Payload
Rocket body
Debris
Shape & HBR
Box + 1 Pan, 4.4 m
Radar Cross Section
13.562 m², Large (>1 m²)

Expand to show TLE details & history
Last TLE update: 17 hours ago

TLE from 17 hours ago
0 STARLINK-1477
1 45754U 20038AA  25258.09297852  .00001305  00000-0  10645-3 0  9990
2 45754  53.0548 284.9027 0001204  87.0079 273.1048 15.06400149290019
Epoch: 2025-09-15T02:13Z
TLE epoch observation values (Epoch: 2025-09-15T02:13:53.344Z)
Latitude
0.00002°
Longitude
-102.87214°
Altitude
548.045 km
Speed
7.589 km/s
True Right ascension
18h 59m 36s
True Declination
0° 00' 00"
Sunlit
Object was in daylight at epoch
Visualization orbit readout
Latitude
Unknown
Longitude
Unknown
Altitude
Unknown
Speed
Unknown
Apparent Right ascension
Unknown
Apparent Declination
Unknown
Sunlit
N/A
Visualization observer readout
Local Sidereal Time
11:50:33
Azimuth
Unknown
Elevation
Unknown
Doppler factor
Unknown
Orbital elements
Apogee altitude
548.316 km
Perigee altitude
546.648 km
Semi-major axis
6,925.619 km
Eccentricity
0.00012
Inclination
53.0548°
RAAN
284.9027°
Arg. of periapsis
87.0079°
True anomaly
273.09102°
Mean anomaly
273.1048°
Eccentric anomaly
273.09791°
Mean motion
3.76578 °/min
Orbital period
95.6 mins
BSTAR
0.00010645
Loading maneuver chart data...
Computing Atmospheric mass density...

Documentation

Showing up to 5 results
|